EW3591 Weather Reports


Display with metric or nautical units.
time (UTC)temp
F
wind
direction
speed
MPH
gust
MPH
rain 1hr
in
rain 24hr
in
rain mn
in
humidity
%
barometer
mb
20220521144935 81 223 7.0 19.0 0.00 0.00 0.00 66 1011.6
20220521144735 80 220 9.0 19.0 0.00 0.00 0.00 65 1011.5
20220521144534 81 225 6.0 19.0 0.00 0.00 0.00 65 1011.5
20220521144334 81 219 6.0 19.0 0.00 0.00 0.00 65 1011.5
20220521144134 81 220 8.0 19.0 0.00 0.00 0.00 65 1011.6
20220521143932 81 221 7.0 19.0 0.00 0.00 0.00 66 1011.5
20220521143732 80 230 7.0 17.0 0.00 0.00 0.00 67 1011.4
20220521143532 80 227 8.0 21.0 0.00 0.00 0.00 66 1011.4
20220521143331 80 223 8.0 21.0 0.00 0.00 0.00 66 1011.4
20220521143131 80 202 8.0 21.0 0.00 0.00 0.00 66 1011.4
20220521142930 80 196 9.0 21.0 0.00 0.00 0.00 66 1011.4
20220521142730 80 199 9.0 21.0 0.00 0.00 0.00 66 1011.5
20220521142529 80 209 7.0 21.0 0.00 0.00 0.00 66 1011.5
20220521142329 80 230 7.0 18.0 0.00 0.00 0.00 66 1011.4
20220521142128 80 229 7.0 17.0 0.00 0.00 0.00 67 1011.4
20220521141927 80 213 6.0 17.0 0.00 0.00 0.00 66 1011.3
20220521141727 80 224 5.0 16.0 0.00 0.00 0.00 68 1011.3
20220521141527 80 231 6.0 17.0 0.00 0.00 0.00 68 1011.3
20220521141326 79 221 7.0 17.0 0.00 0.00 0.00 68 1011.3
20220521141126 79 221 6.0 17.0 0.00 0.00 0.00 68 1011.3
20220521140926 79 200 7.0 17.0 0.00 0.00 0.00 68 1011.2
20220521140725 79 174 5.0 12.0 0.00 0.00 0.00 68 1011.2
20220521140525 79 190 5.0 12.0 0.00 0.00 0.00 69 1011.1
20220521140324 78 217 6.0 12.0 0.00 0.00 0.00 69 1011.2
20220521140124 78 232 6.0 12.0 0.00 0.00 0.00 69 1011.1
20220521135924 78 212 6.0 12.0 0.00 0.04 0.00 69 1011.0
20220521135723 78 202 5.0 12.0 0.00 0.04 0.00 70 1011.0
20220521135523 78 223 5.0 12.0 0.00 0.04 0.00 70 1010.9
20220521135323 78 247 6.0 12.0 0.00 0.04 0.00 70 1011.0
20220521135122 78 257 5.0 18.0 0.00 0.04 0.00 70 1010.9
20220521134921 77 223 5.0 18.0 0.00 0.04 0.00 70 1010.9
20220521134721 77 224 4.0 18.0 0.00 0.04 0.00 71 1010.9
20220521134520 77 216 5.0 18.0 0.00 0.04 0.00 71 1010.8
20220521134320 77 213 6.0 18.0 0.00 0.04 0.00 70 1010.8
20220521134120 77 227 6.0 17.0 0.00 0.04 0.00 70 1010.9
20220521133919 77 214 7.0 17.0 0.00 0.04 0.00 70 1010.8
20220521133719 78 194 7.0 15.0 0.00 0.04 0.00 70 1010.9
20220521133519 78 198 5.0 15.0 0.00 0.04 0.00 70 1010.9
20220521133317 78 205 4.0 16.0 0.00 0.04 0.00 70 1010.9
20220521133116 78 237 5.0 18.0 0.00 0.04 0.00 70 1011.0
20220521132916 77 237 7.0 18.0 0.00 0.04 0.00 70 1011.0
20220521132716 77 207 7.0 18.0 0.00 0.04 0.00 71 1011.0
20220521132515 77 204 6.0 18.0 0.00 0.04 0.00 72 1010.9
20220521132315 76 198 8.0 18.0 0.00 0.04 0.00 72 1011.0
20220521132115 76 216 5.0 15.0 0.00 0.04 0.00 72 1011.0
20220521131914 76 220 4.0 16.0 0.00 0.04 0.00 73 1011.1
20220521131714 76 213 4.0 16.0 0.00 0.04 0.00 73 1011.1
20220521131514 76 209 5.0 16.0 0.00 0.04 0.00 73 1011.0
20220521131313 76 210 6.0 16.0 0.00 0.04 0.00 74 1011.0
20220521131113 76 204 4.0 10.0 0.00 0.04 0.00 73 1011.0
20220521130913 75 209 3.0 10.0 0.00 0.04 0.00 74 1011.0
20220521130712 75 235 4.0 13.0 0.00 0.04 0.00 74 1011.1
20220521130512 75 223 4.0 14.0 0.00 0.04 0.00 74 1011.1
20220521130312 75 199 4.0 14.0 0.00 0.04 0.00 74 1011.1
20220521130111 75 206 4.0 14.0 0.00 0.04 0.00 74 1011.0
20220521125910 75 190 6.0 14.0 0.00 0.05 0.00 74 1010.9
20220521125710 75 211 5.0 12.0 0.00 0.05 0.00 74 1010.8
20220521125509 75 192 6.0 12.0 0.00 0.05 0.00 74 1010.9
20220521125309 75 165 5.0 12.0 0.00 0.05 0.00 74 1010.9
20220521125109 75 199 2.0 9.0 0.00 0.05 0.00 74 1010.9
20220521124908 75 206 4.0 11.0 0.00 0.05 0.00 74 1010.9
20220521124708 75 189 4.0 11.0 0.00 0.05 0.00 74 1010.9
20220521124508 75 210 3.0 11.0 0.00 0.05 0.00 74 1011.0
20220521124307 75 230 5.0 11.0 0.00 0.05 0.00 74 1011.0
20220521124107 75 229 4.0 11.0 0.00 0.05 0.00 74 1011.0
20220521123907 75 202 4.0 13.0 0.00 0.05 0.00 74 1010.9
20220521123706 75 240 4.0 14.0 0.00 0.05 0.00 74 1010.9
20220521123506 75 248 5.0 17.0 0.00 0.05 0.00 74 1011.0
20220521123305 75 189 5.0 17.0 0.00 0.05 0.00 74 1010.9
20220521123105 75 195 6.0 17.0 0.00 0.05 0.00 74 1010.9
20220521122905 75 230 6.0 17.0 0.00 0.05 0.00 74 1010.9
20220521122704 75 231 5.0 17.0 0.00 0.05 0.00 73 1011.1
20220521122503 75 234 4.0 16.0 0.00 0.05 0.00 73 1011.1
20220521122302 75 229 3.0 16.0 0.00 0.05 0.00 74 1011.0
20220521122102 75 219 7.0 16.0 0.00 0.05 0.00 74 1011.0
20220521121902 75 231 4.0 16.0 0.00 0.05 0.00 74 1011.0
20220521121701 75 235 4.0 13.0 0.00 0.05 0.00 74 1011.0
20220521121501 75 212 5.0 14.0 0.00 0.05 0.00 74 1010.9
20220521121300 75 234 5.0 14.0 0.00 0.05 0.00 74 1010.9
20220521121100 74 251 4.0 14.0 0.00 0.05 0.00 75 1010.9
20220521120859 74 229 4.0 14.0 0.00 0.05 0.00 75 1010.8
20220521120659 74 211 4.0 14.0 0.00 0.05 0.00 75 1010.7
20220521120458 74 200 4.0 12.0 0.00 0.05 0.00 75 1010.7
20220521120258 74 203 6.0 12.0 0.00 0.05 0.00 75 1010.8
20220521120058 74 222 5.0 12.0 0.00 0.05 0.00 75 1010.7
20220521115857 74 219 3.0 12.0 0.00 0.05 0.00 75 1010.6
20220521115657 74 219 3.0 13.0 0.00 0.05 0.00 75 1010.7
20220521115456 74 197 4.0 13.0 0.00 0.05 0.00 75 1010.6
20220521115256 74 217 5.0 15.0 0.00 0.05 0.00 75 1010.4
20220521115056 74 214 5.0 15.0 0.00 0.05 0.00 75 1010.4
20220521114855 74 229 4.0 18.0 0.00 0.05 0.00 75 1010.5
20220521114655 74 200 4.0 18.0 0.00 0.05 0.00 75 1010.5
20220521114455 74 205 7.0 18.0 0.00 0.05 0.00 75 1010.3
20220521114254 74 199 5.0 18.0 0.00 0.05 0.00 75 1010.2
20220521114054 74 209 5.0 18.0 0.00 0.05 0.00 75 1010.1
20220521113854 74 190 7.0 17.0 0.00 0.05 0.00 75 1010.2
20220521113653 74 196 6.0 17.0 0.00 0.05 0.00 75 1010.3
20220521113453 74 220 5.0 17.0 0.00 0.05 0.00 75 1010.5
20220521113251 74 210 5.0 13.0 0.00 0.05 0.00 75 1010.7
20220521113051 74 202 4.0 13.0 0.00 0.05 0.00 75 1010.6
20220521112850 74 205 5.0 17.0 0.00 0.05 0.00 75 1010.4
20220521112650 74 202 6.0 17.0 0.00 0.05 0.00 75 1010.2
20220521112450 74 203 7.0 17.0 0.00 0.05 0.00 75 1009.9
20220521112249 74 199 7.0 17.0 0.00 0.05 0.00 75 1009.9
20220521112048 74 207 6.0 17.0 0.00 0.05 0.00 75 1010.0
20220521111848 74 207 5.0 17.0 0.00 0.05 0.00 74 1010.1
20220521111647 74 210 5.0 17.0 0.00 0.05 0.00 75 1010.1
20220521111447 74 216 5.0 17.0 0.00 0.05 0.00 75 1010.3
20220521111247 74 205 6.0 17.0 0.00 0.05 0.00 75 1010.4
20220521111045 74 208 5.0 17.0 0.00 0.05 0.00 75 1010.3
20220521110844 74 185 6.0 13.0 0.00 0.05 0.00 75 1010.5
20220521110644 74 206 5.0 17.0 0.00 0.05 0.00 75 1010.4
20220521110444 74 202 5.0 17.0 0.00 0.05 0.00 75 1010.5
20220521110243 74 200 5.0 17.0 0.00 0.05 0.00 75 1010.3
20220521110043 74 197 5.0 17.0 0.00 0.05 0.00 75 1010.4
20220521105843 74 188 6.0 17.0 0.00 0.05 0.00 75 1010.3
20220521105642 74 200 5.0 12.0 0.00 0.05 0.00 75 1010.2
20220521105442 74 206 5.0 12.0 0.00 0.05 0.00 75 1010.2
20220521105242 74 217 4.0 14.0 0.00 0.05 0.00 75 1010.0
20220521105041 74 205 5.0 14.0 0.00 0.05 0.00 75 1010.0
20220521104841 74 202 5.0 14.0 0.00 0.05 0.00 75 1009.9
20220521104641 74 188 5.0 14.0 0.00 0.05 0.00 76 1010.0
20220521104440 74 186 6.0 14.0 0.00 0.05 0.00 76 1010.0
20220521104239 74 195 4.0 12.0 0.00 0.05 0.00 76 1010.0
20220521104039 74 208 5.0 12.0 0.00 0.05 0.00 76 1010.0
20220521103838 74 198 6.0 12.0 0.00 0.05 0.00 76 1010.0
20220521103638 74 200 5.0 12.0 0.00 0.05 0.00 76 1010.0
20220521103438 74 208 5.0 11.0 0.00 0.05 0.00 76 1010.1
20220521103237 74 206 5.0 11.0 0.00 0.05 0.00 76 1009.9
20220521103037 74 204 3.0 11.0 0.00 0.05 0.00 76 1010.0
20220521102836 74 189 4.0 13.0 0.00 0.05 0.00 76 1009.9
20220521102636 74 198 5.0 14.0 0.00 0.05 0.00 76 1009.9
20220521102436 74 210 4.0 14.0 0.00 0.05 0.00 76 1009.8
20220521102235 74 211 5.0 19.0 0.00 0.05 0.00 76 1009.8
20220521102035 74 189 5.0 19.0 0.00 0.05 0.00 76 1009.7
20220521101835 74 205 4.0 19.0 0.00 0.05 0.00 76 1009.6
20220521101634 74 210 4.0 19.0 0.00 0.05 0.00 76 1009.7
20220521101434 74 196 6.0 19.0 0.00 0.05 0.00 76 1009.5
20220521101234 74 201 5.0 19.0 0.00 0.05 0.00 76 1009.4
20220521101033 74 200 5.0 14.0 0.00 0.05 0.00 76 1009.4
20220521100833 74 222 4.0 13.0 0.00 0.05 0.00 76 1009.5
20220521100632 74 213 6.0 13.0 0.00 0.05 0.00 76 1009.4
20220521100432 74 209 5.0 14.0 0.00 0.05 0.00 76 1009.4
20220521100232 74 219 5.0 14.0 0.00 0.05 0.00 76 1009.4
20220521100031 74 200 6.0 14.0 0.00 0.05 0.00 76 1009.4
20220521095831 74 194 5.0 14.0 0.00 0.05 0.00 76 1009.3
20220521095631 74 194 5.0 13.0 0.00 0.05 0.00 76 1009.2
20220521095430 74 197 5.0 13.0 0.00 0.05 0.00 76 1009.2
20220521095228 74 194 4.0 11.0 0.00 0.05 0.00 76 1009.2
20220521095028 74 199 5.0 11.0 0.00 0.05 0.00 76 1009.3
20220521094828 74 204 6.0 11.0 0.00 0.05 0.00 76 1009.2
20220521094627 74 226 5.0 13.0 0.00 0.05 0.00 77 1009.2
20220521094427 74 232 5.0 13.0 0.00 0.05 0.00 77 1009.2
20220521094226 74 217 4.0 13.0 0.00 0.05 0.00 77 1009.1
20220521094026 74 208 6.0 13.0 0.00 0.05 0.00 77 1009.1
20220521093826 73 201 6.0 13.0 0.00 0.05 0.00 77 1009.1
20220521093625 73 213 6.0 11.0 0.00 0.05 0.00 78 1009.0
20220521093425 73 211 4.0 11.0 0.00 0.05 0.00 78 1009.1
20220521093225 73 214 2.0 12.0 0.00 0.05 0.00 78 1009.1
20220521093024 73 214 4.0 12.0 0.00 0.05 0.00 78 1009.0
20220521092823 73 208 5.0 12.0 0.00 0.05 0.00 79 1009.0
20220521092622 73 205 6.0 12.0 0.00 0.05 0.00 79 1009.1
20220521092422 72 207 5.0 12.0 0.00 0.05 0.00 79 1009.1
20220521092222 72 217 5.0 9.0 0.00 0.05 0.00 80 1009.0
20220521092021 72 211 5.0 10.0 0.00 0.05 0.00 80 1009.1
20220521091820 72 211 4.0 12.0 0.00 0.05 0.00 80 1008.9
20220521091620 72 207 5.0 12.0 0.00 0.05 0.00 80 1008.9
20220521091419 72 203 4.0 12.0 0.00 0.05 0.00 81 1008.8
20220521091219 72 191 4.0 12.0 0.00 0.05 0.00 81 1008.8
20220521091019 72 202 5.0 12.0 0.00 0.05 0.00 81 1008.7
20220521090818 72 200 4.0 10.0 0.00 0.05 0.00 81 1008.6
20220521090616 72 200 5.0 10.0 0.00 0.05 0.00 81 1008.6
20220521090416 71 197 5.0 10.0 0.00 0.05 0.00 81 1008.6
20220521090215 71 185 5.0 10.0 0.00 0.05 0.00 81 1008.5
20220521090015 71 204 4.0 10.0 0.00 0.05 0.00 81 1008.5
20220521085814 71 219 5.0 10.0 0.00 0.05 0.00 81 1008.5
20220521085613 71 216 5.0 12.0 0.00 0.05 0.00 81 1008.5
20220521085413 71 211 5.0 12.0 0.00 0.05 0.00 81 1008.4
20220521085212 71 212 4.0 12.0 0.00 0.05 0.00 81 1008.4
20220521085012 71 213 5.0 12.0 0.00 0.05 0.00 81 1008.4
20220521084812 71 203 6.0 13.0 0.00 0.05 0.00 81 1008.3
20220521084611 71 203 6.0 14.0 0.00 0.05 0.00 82 1008.3
20220521084411 71 211 6.0 14.0 0.00 0.05 0.00 82 1008.3
20220521084211 71 207 6.0 14.0 0.00 0.05 0.00 82 1008.2
20220521084010 71 203 6.0 14.0 0.00 0.05 0.00 82 1008.2
20220521083810 71 195 5.0 14.0 0.00 0.05 0.00 82 1008.2
20220521083610 71 189 5.0 14.0 0.00 0.05 0.00 82 1008.2
20220521083409 71 203 6.0 14.0 0.00 0.05 0.00 82 1008.2
20220521083209 71 211 5.0 12.0 0.00 0.05 0.00 82 1008.2
20220521083009 71 202 5.0 12.0 0.00 0.05 0.00 82 1008.1
20220521082808 71 204 4.0 11.0 0.00 0.05 0.00 83 1008.1
20220521082607 71 211 5.0 12.0 0.00 0.05 0.00 83 1008.1
20220521082407 71 203 6.0 13.0 0.00 0.05 0.00 83 1008.1
20220521082207 70 200 6.0 13.0 0.00 0.05 0.00 83 1007.9
20220521082006 70 207 5.0 13.0 0.00 0.05 0.00 83 1008.0
20220521081806 70 209 4.0 13.0 0.00 0.05 0.00 83 1008.0
20220521081605 70 210 4.0 11.0 0.00 0.05 0.00 83 1008.0
20220521081405 70 207 5.0 11.0 0.00 0.05 0.00 84 1007.9
20220521081205 70 199 5.0 11.0 0.00 0.05 0.00 84 1007.9
20220521081004 70 206 6.0 11.0 0.00 0.05 0.00 84 1007.8
20220521080804 70 207 4.0 12.0 0.00 0.05 0.00 84 1007.8
20220521080604 70 213 3.0 13.0 0.00 0.05 0.00 84 1007.9
20220521080403 70 208 4.0 13.0 0.00 0.05 0.00 84 1007.9
20220521080203 70 200 6.0 13.0 0.00 0.05 0.00 84 1007.9
20220521080003 70 190 6.0 13.0 0.00 0.05 0.00 84 1007.8
20220521075802 70 206 4.0 13.0 0.00 0.05 0.00 84 1007.8
20220521075602 70 201 4.0 11.0 0.00 0.05 0.00 84 1007.7
20220521075401 70 218 4.0 11.0 0.00 0.05 0.00 84 1007.6
20220521075201 70 208 5.0 11.0 0.00 0.05 0.00 84 1007.6
20220521075001 70 214 5.0 11.0 0.00 0.05 0.00 84 1007.5
20220521074800 70 204 4.0 11.0 0.00 0.05 0.00 84 1007.5
20220521074559 70 206 5.0 11.0 0.00 0.05 0.00 84 1007.5
20220521074359 70 206 4.0 16.0 0.00 0.05 0.00 84 1007.4
20220521074159 70 210 5.0 16.0 0.00 0.05 0.00 84 1007.3
20220521073958 70 204 5.0 16.0 0.00 0.05 0.00 84 1007.3
20220521073757 70 197 7.0 16.0 0.00 0.05 0.00 84 1007.3
20220521073555 70 202 6.0 16.0 0.00 0.05 0.00 84 1007.2
20220521073355 70 201 5.0 12.0 0.00 0.05 0.00 84 1007.2
20220521073155 70 195 5.0 12.0 0.00 0.05 0.00 84 1007.2
20220521072954 70 190 5.0 12.0 0.00 0.05 0.00 84 1007.1
20220521072754 70 209 5.0 11.0 0.00 0.05 0.00 84 1007.1
20220521072554 70 208 5.0 11.0 0.00 0.05 0.00 84 1007.1
20220521072353 70 211 5.0 11.0 0.00 0.05 0.00 84 1007.0
20220521072153 70 196 6.0 11.0 0.00 0.05 0.00 84 1007.0
20220521071952 70 200 5.0 11.0 0.00 0.05 0.00 84 1007.0
20220521071751 70 201 5.0 10.0 0.00 0.05 0.00 84 1007.0
20220521071551 70 205 4.0 15.0 0.00 0.05 0.00 84 1007.0
20220521071351 70 212 4.0 15.0 0.00 0.05 0.00 84 1007.0
20220521071150 70 217 4.0 15.0 0.00 0.05 0.00 84 1006.9
20220521070950 70 216 5.0 15.0 0.00 0.05 0.00 84 1006.9
20220521070750 70 202 4.0 15.0 0.00 0.05 0.00 84 1006.9
20220521070549 70 217 5.0 15.0 0.00 0.05 0.00 84 1006.9
20220521070349 70 203 6.0 12.0 0.00 0.05 0.00 84 1006.8
20220521070148 70 200 6.0 13.0 0.00 0.05 0.00 84 1006.7
20220521065947 70 198 4.0 13.0 0.00 0.05 0.00 84 1006.7
20220521065747 70 204 6.0 13.0 0.00 0.05 0.00 84 1006.8
20220521065547 70 197 6.0 13.0 0.00 0.05 0.00 84 1006.7
20220521065346 70 206 5.0 13.0 0.00 0.05 0.00 84 1006.7
20220521065146 70 204 5.0 9.0 0.00 0.05 0.00 84 1006.7
20220521064946 70 193 5.0 10.0 0.00 0.05 0.00 84 1006.7
20220521064745 70 202 4.0 12.0 0.00 0.05 0.00 83 1006.7
20220521064545 70 220 4.0 12.0 0.00 0.05 0.00 83 1006.8
20220521064344 70 212 5.0 12.0 0.00 0.05 0.00 83 1006.7
20220521064144 70 202 5.0 12.0 0.00 0.05 0.00 83 1006.7
20220521063944 70 200 5.0 13.0 0.00 0.05 0.00 83 1006.7
20220521063742 70 215 5.0 13.0 0.00 0.05 0.00 83 1006.6
20220521063542 70 206 5.0 13.0 0.00 0.05 0.00 83 1006.6
20220521063340 70 195 5.0 13.0 0.00 0.05 0.00 83 1006.6
20220521063140 70 205 6.0 13.0 0.00 0.05 0.00 83 1006.5
20220521062940 70 198 5.0 12.0 0.00 0.05 0.00 83 1006.5
20220521062739 70 210 6.0 13.0 0.00 0.05 0.00 83 1006.5
20220521062539 70 215 5.0 13.0 0.00 0.05 0.00 83 1006.6
20220521062338 70 205 6.0 13.0 0.00 0.05 0.00 82 1006.5
20220521062138 70 205 6.0 13.0 0.00 0.05 0.00 82 1006.6
20220521061938 70 210 7.0 14.0 0.00 0.05 0.00 82 1006.6
20220521061737 70 210 6.0 14.0 0.00 0.05 0.00 82 1006.5
20220521061535 70 201 7.0 14.0 0.00 0.05 0.00 82 1006.5
20220521061335 70 194 7.0 14.0 0.00 0.05 0.00 82 1006.5
20220521061135 70 192 5.0 13.0 0.00 0.05 0.00 82 1006.5
20220521060934 70 192 7.0 13.0 0.00 0.05 0.00 82 1006.5
20220521060734 70 209 6.0 13.0 0.00 0.05 0.00 82 1006.4
20220521060534 70 209 6.0 15.0 0.00 0.05 0.00 82 1006.4
20220521060333 70 200 7.0 15.0 0.00 0.05 0.00 81 1006.4
20220521060133 70 202 6.0 15.0 0.00 0.05 0.00 81 1006.4
20220521055933 70 204 6.0 15.0 0.00 0.05 0.00 81 1006.4
20220521055732 70 193 6.0 15.0 0.00 0.05 0.00 81 1006.4
20220521055532 70 206 5.0 14.0 0.00 0.05 0.00 81 1006.4
20220521055331 70 213 4.0 14.0 0.00 0.05 0.00 81 1006.3
20220521055131 70 206 5.0 14.0 0.00 0.05 0.00 81 1006.3
20220521054931 70 195 5.0 14.0 0.00 0.05 0.00 81 1006.3
20220521054731 70 220 5.0 14.0 0.00 0.05 0.00 81 1006.4
20220521054530 70 203 6.0 14.0 0.00 0.05 0.00 81 1006.3
20220521054330 70 201 5.0 14.0 0.00 0.05 0.00 81 1006.3
20220521054129 70 207 5.0 14.0 0.00 0.05 0.00 81 1006.3
20220521053929 70 199 5.0 14.0 0.00 0.05 0.00 80 1006.3
20220521053729 71 200 6.0 14.0 0.00 0.05 0.00 80 1006.4
20220521053528 71 202 6.0 14.0 0.00 0.05 0.00 80 1006.4
20220521053328 71 209 6.0 12.0 0.00 0.05 0.00 80 1006.5
20220521053128 71 199 7.0 12.0 0.00 0.05 0.00 80 1006.5
20220521052927 71 197 6.0 12.0 0.00 0.05 0.00 80 1006.6
20220521052727 71 210 4.0 12.0 0.00 0.05 0.00 80 1006.6
20220521052526 71 213 6.0 12.0 0.00 0.05 0.00 80 1006.6
20220521052325 71 201 5.0 12.0 0.00 0.05 0.00 80 1006.6
20220521052124 71 204 6.0 12.0 0.00 0.05 0.00 80 1006.6
20220521051924 71 211 5.0 12.0 0.00 0.05 0.00 80 1006.6
20220521051723 71 197 6.0 12.0 0.00 0.05 0.00 80 1006.6
20220521051523 71 203 6.0 15.0 0.00 0.05 0.00 80 1006.7
20220521051323 71 190 6.0 16.0 0.00 0.05 0.00 80 1006.7
20220521051121 71 202 6.0 16.0 0.00 0.05 0.00 80 1006.7
20220521050720 71 203 7.0 16.0 0.00 0.05 0.00 79 1006.6
20220521050520 71 205 8.0 16.0 0.00 0.05 0.00 79 1006.6
20220521050319 71 203 7.0 13.0 0.00 0.05 0.00 79 1006.6
20220521050119 71 201 6.0 13.0 0.00 0.05 0.00 79 1006.6
20220521045919 71 204 7.0 13.0 0.00 0.05 0.00 79 1006.6
20220521045717 71 195 8.0 14.0 0.00 0.05 0.00 79 1006.6
20220521045517 71 209 5.0 14.0 0.00 0.05 0.00 79 1006.6
20220521045316 71 219 6.0 14.0 0.00 0.05 0.00 79 1006.7
20220521045116 71 209 6.0 14.0 0.00 0.05 0.00 79 1006.6
20220521044915 71 193 6.0 16.0 0.00 0.05 0.00 78 1006.6
20220521044715 71 207 7.0 16.0 0.00 0.05 0.00 78 1006.6
20220521044515 71 201 7.0 16.0 0.00 0.05 0.00 78 1006.6
20220521044314 71 194 6.0 16.0 0.00 0.05 0.00 78 1006.6
20220521044114 71 203 6.0 16.0 0.00 0.05 0.00 78 1006.6
20220521043914 72 205 6.0 14.0 0.00 0.05 0.00 78 1006.5
20220521043713 72 199 7.0 14.0 0.00 0.05 0.00 78 1006.5
20220521043513 72 200 7.0 14.0 0.00 0.05 0.00 78 1006.5
20220521043311 72 205 6.0 14.0 0.00 0.05 0.00 78 1006.5
20220521043111 72 209 7.0 11.0 0.00 0.05 0.00 78 1006.5
20220521042910 72 209 8.0 19.0 0.00 0.05 0.00 78 1006.5
20220521042710 72 213 6.0 19.0 0.00 0.05 0.00 77 1006.5
20220521042510 72 214 6.0 19.0 0.00 0.05 0.00 77 1006.6
20220521042309 72 211 7.0 19.0 0.00 0.05 0.00 77 1006.5
20220521042109 72 207 7.0 19.0 0.00 0.05 0.00 77 1006.5
20220521041909 72 201 7.0 15.0 0.00 0.05 0.00 77 1006.5
20220521041708 72 204 6.0 15.0 0.00 0.05 0.00 77 1006.4
20220521041508 72 206 7.0 15.0 0.00 0.05 0.00 77 1006.3
20220521041308 72 213 7.0 15.0 0.00 0.05 0.00 77 1006.3
20220521041107 72 208 6.0 15.0 0.00 0.05 0.00 77 1006.3
20220521040907 72 201 7.0 15.0 0.00 0.05 0.00 77 1006.2
20220521040707 72 206 7.0 15.0 0.00 0.05 0.00 77 1006.2
20220521040506 72 205 7.0 15.0 0.00 0.05 0.00 77 1006.2
20220521040306 72 201 7.0 15.0 0.00 0.05 0.00 77 1006.1
20220521040106 72 207 8.0 15.0 0.00 0.05 0.00 77 1005.9
20220521035905 72 200 7.0 15.0 0.00 0.05 0.05 77 1005.9
20220521035705 72 209 8.0 14.0 0.00 0.05 0.05 77 1005.8
20220521035504 72 203 7.0 15.0 0.00 0.05 0.05 77 1005.8
20220521035304 72 216 7.0 15.0 0.00 0.05 0.05 77 1005.7
20220521035104 72 208 6.0 15.0 0.00 0.05 0.05 78 1005.6
20220521034903 72 198 7.0 15.0 0.00 0.05 0.05 78 1005.6
20220521034703 72 206 7.0 15.0 0.00 0.05 0.05 78 1005.6
20220521034503 72 211 7.0 14.0 0.00 0.05 0.05 78 1005.6
20220521034302 72 205 7.0 14.0 0.00 0.05 0.05 78 1005.6
20220521034102 72 211 8.0 14.0 0.00 0.05 0.05 78 1005.5
20220521033902 72 203 8.0 14.0 0.00 0.05 0.05 78 1005.5
20220521033701 72 217 6.0 14.0 0.00 0.05 0.05 79 1005.6
20220521033501 71 206 6.0 14.0 0.00 0.05 0.05 79 1005.6
20220521033301 71 193 6.0 14.0 0.00 0.05 0.05 80 1005.5
20220521033100 71 207 6.0 14.0 0.00 0.05 0.05 80 1005.5
20220521032900 71 217 6.0 13.0 0.00 0.05 0.05 81 1005.5
20220521032658 71 211 5.0 13.0 0.00 0.05 0.05 81 1005.5
20220521032458 71 201 5.0 13.0 0.00 0.05 0.05 81 1005.5
20220521032257 71 215 5.0 13.0 0.00 0.05 0.05 81 1005.5
20220521032057 71 215 6.0 11.0 0.00 0.05 0.05 82 1005.5
20220521031857 71 207 6.0 12.0 0.00 0.05 0.05 82 1005.4
20220521031656 71 215 5.0 12.0 0.00 0.05 0.05 82 1005.5
20220521031456 71 213 6.0 12.0 0.00 0.05 0.05 82 1005.5
20220521031256 71 208 6.0 12.0 0.00 0.05 0.05 82 1005.6
20220521031054 71 207 7.0 12.0 0.00 0.05 0.05 82 1005.5
20220521030853 71 199 7.0 12.0 0.00 0.05 0.05 82 1005.5
20220521030653 71 197 6.0 12.0 0.00 0.05 0.05 82 1005.6
20220521030453 71 202 7.0 12.0 0.00 0.05 0.05 82 1005.6
20220521030252 71 212 6.0 14.0 0.00 0.05 0.05 82 1005.6
20220521030052 71 210 6.0 14.0 0.00 0.05 0.05 82 1005.6
20220521025851 71 210 6.0 14.0 0.00 0.05 0.05 82 1005.7
20220521025650 71 203 7.0 14.0 0.00 0.05 0.05 83 1005.7
20220521025449 71 207 6.0 14.0 0.00 0.05 0.05 83 1005.7
20220521025249 71 213 5.0 12.0 0.00 0.05 0.05 83 1005.7
20220521025048 71 200 5.0 12.0 0.00 0.05 0.05 83 1005.8
20220521024848 71 207 6.0 13.0 0.00 0.05 0.05 83 1005.7
20220521024646 71 216 5.0 13.0 0.00 0.05 0.05 84 1005.7
20220521024446 71 216 6.0 13.0 0.00 0.05 0.05 84 1005.7
20220521024245 71 205 6.0 13.0 0.00 0.05 0.05 84 1005.8
20220521024045 70 204 5.0 13.0 0.00 0.05 0.05 84 1005.7
20220521023845 71 207 3.0 13.0 0.00 0.05 0.05 84 1005.7
20220521023644 71 211 5.0 13.0 0.00 0.05 0.05 84 1005.7
20220521023444 71 208 6.0 13.0 0.00 0.05 0.05 84 1005.7
20220521023244 70 205 5.0 10.0 0.00 0.05 0.05 84 1005.7
20220521023043 71 210 4.0 10.0 0.00 0.05 0.05 84 1005.7
20220521022843 71 211 4.0 10.0 0.00 0.05 0.05 84 1005.7
20220521022643 71 214 5.0 10.0 0.00 0.05 0.05 84 1005.7
20220521022442 71 204 4.0 10.0 0.00 0.05 0.05 84 1005.7
20220521022242 71 206 4.0 10.0 0.00 0.05 0.05 84 1005.7
20220521022041 71 200 4.0 10.0 0.00 0.05 0.05 84 1005.6
20220521021841 71 198 5.0 11.0 0.00 0.05 0.05 84 1005.7
20220521021641 71 204 5.0 11.0 0.00 0.05 0.05 84 1005.6
20220521021440 71 203 5.0 11.0 0.00 0.05 0.05 84 1005.6
20220521021240 71 209 5.0 11.0 0.00 0.05 0.05 84 1005.6
20220521021040 71 214 5.0 10.0 0.00 0.05 0.05 84 1005.6
20220521020839 71 208 4.0 10.0 0.00 0.05 0.05 84 1005.6
20220521020639 71 205 3.0 8.0 0.00 0.05 0.05 84 1005.6
20220521020439 71 201 4.0 9.0 0.00 0.05 0.05 84 1005.6
20220521020238 71 209 4.0 9.0 0.00 0.05 0.05 84 1005.6
20220521020038 71 215 3.0 9.0 0.00 0.05 0.05 84 1005.6
20220521015837 71 200 4.0 9.0 0.00 0.05 0.05 84 1005.5
20220521015637 71 199 3.0 9.0 0.00 0.05 0.05 84 1005.6
20220521015437 71 207 3.0 8.0 0.00 0.05 0.05 84 1005.6
20220521015236 71 207 3.0 8.0 0.00 0.05 0.05 84 1005.6
20220521015036 71 202 3.0 7.0 0.00 0.05 0.05 84 1005.6
20220521014836 71 200 2.0 8.0 0.00 0.05 0.05 84 1005.6
20220521014635 71 210 4.0 8.0 0.00 0.05 0.05 84 1005.6
20220521014435 71 206 3.0 8.0 0.00 0.05 0.05 84 1005.5
20220521014235 71 208 3.0 8.0 0.00 0.05 0.05 83 1005.5
20220521014034 71 214 4.0 8.0 0.00 0.05 0.05 83 1005.5
20220521013834 71 222 3.0 8.0 0.00 0.05 0.05 83 1005.5
20220521013634 71 208 3.0 8.0 0.00 0.05 0.05 83 1005.5
20220521013433 71 195 3.0 9.0 0.00 0.05 0.05 83 1005.4
20220521013233 71 196 2.0 10.0 0.00 0.05 0.05 83 1005.5
20220521012831 72 219 4.0 10.0 0.00 0.05 0.05 83 1005.5
20220521012630 72 206 4.0 10.0 0.00 0.05 0.05 83 1005.4
20220521012430 72 206 2.0 9.0 0.00 0.05 0.05 82 1005.3
20220521012229 72 193 3.0 9.0 0.00 0.05 0.05 82 1005.4
20220521012029 72 201 4.0 9.0 0.00 0.05 0.05 82 1005.4
20220521011829 72 193 4.0 10.0 0.00 0.05 0.05 82 1005.3
20220521011628 72 193 4.0 10.0 0.00 0.05 0.05 82 1005.3
20220521011428 72 190 3.0 10.0 0.00 0.05 0.05 82 1005.2
20220521011228 72 198 5.0 10.0 0.00 0.05 0.05 82 1005.3
20220521011027 72 203 5.0 10.0 0.00 0.05 0.05 82 1005.2
20220521010827 72 204 5.0 9.0 0.00 0.05 0.05 82 1005.1
20220521010627 72 201 4.0 10.0 0.00 0.05 0.05 82 1005.1
20220521010426 72 204 4.0 10.0 0.00 0.05 0.05 82 1005.0
20220521010226 72 205 5.0 10.0 0.00 0.05 0.05 82 1005.0
20220521010026 72 196 5.0 10.0 0.00 0.05 0.05 82 1005.0
20220521005825 72 193 5.0 10.0 0.00 0.05 0.05 82 1005.0
20220521005625 72 196 4.0 9.0 0.00 0.05 0.05 82 1005.0
20220521005425 72 202 4.0 9.0 0.00 0.05 0.05 82 1005.0
20220521005224 72 211 3.0 9.0 0.00 0.05 0.05 82 1004.9
20220521005024 72 202 3.0 9.0 0.00 0.05 0.05 82 1004.9
20220521004823 72 200 4.0 9.0 0.00 0.05 0.05 82 1004.8
20220521004623 73 206 4.0 9.0 0.00 0.05 0.05 81 1004.7
20220521004423 73 215 3.0 7.0 0.00 0.05 0.05 81 1004.7
20220521004222 73 213 3.0 7.0 0.00 0.05 0.05 81 1004.7
20220521004022 73 208 3.0 6.0 0.00 0.05 0.05 81 1004.6
20220521003821 73 209 3.0 6.0 0.00 0.05 0.05 81 1004.6
20220521003621 73 213 3.0 7.0 0.00 0.05 0.05 81 1004.6
20220521003421 73 226 3.0 7.0 0.00 0.05 0.05 81 1004.6
20220521003220 73 219 3.0 8.0 0.00 0.05 0.05 81 1004.6
20220521003020 73 207 3.0 9.0 0.00 0.05 0.05 80 1004.5
20220521002820 73 206 3.0 9.0 0.00 0.05 0.05 80 1004.5
20220521002619 73 208 3.0 11.0 0.00 0.05 0.05 80 1004.5
20220521002419 73 209 4.0 11.0 0.00 0.05 0.05 80 1004.6
20220521002219 73 201 3.0 11.0 0.00 0.05 0.05 80 1004.5
20220521002018 73 213 4.0 11.0 0.00 0.05 0.05 80 1004.5
20220521001818 73 204 5.0 11.0 0.00 0.05 0.05 80 1004.4
20220521001617 73 203 4.0 10.0 0.00 0.05 0.05 80 1004.4
20220521001417 74 221 4.0 10.0 0.00 0.05 0.05 80 1004.4
20220521001217 74 218 5.0 10.0 0.00 0.05 0.05 80 1004.5
20220521001016 74 201 5.0 12.0 0.00 0.05 0.05 80 1004.4
20220521000816 74 204 6.0 12.0 0.00 0.05 0.05 80 1004.3
20220521000616 74 209 4.0 12.0 0.00 0.05 0.05 79 1004.2
20220521000415 74 224 5.0 12.0 0.00 0.05 0.05 79 1004.1
20220521000215 74 207 4.0 9.0 0.00 0.05 0.05 79 1004.1
20220521000015 74 207 4.0 9.0 0.00 0.05 0.05 79 1004.0
20220520235814 74 208 5.0 8.0 0.00 0.05 0.05 79 1003.9
20220520235614 74 195 5.0 9.0 0.00 0.05 0.05 79 1003.9
20220520235414 74 205 4.0 10.0 0.00 0.05 0.05 79 1003.8
20220520235213 74 227 4.0 10.0 0.00 0.05 0.05 79 1003.7
20220520235013 74 212 5.0 10.0 0.00 0.05 0.05 78 1003.7
20220520234813 74 191 4.0 11.0 0.00 0.05 0.05 78 1003.6
20220520234612 74 211 3.0 11.0 0.00 0.05 0.05 78 1003.5
20220520234412 74 227 3.0 11.0 0.00 0.05 0.05 78 1003.4
20220520234212 74 223 5.0 11.0 0.00 0.05 0.05 78 1003.3
20220520234011 74 213 6.0 11.0 0.00 0.05 0.05 78 1003.3
20220520233811 74 219 5.0 12.0 0.00 0.05 0.05 78 1003.2
20220520233610 74 224 4.0 13.0 0.00 0.05 0.05 78 1003.2
20220520233410 74 219 5.0 13.0 0.00 0.05 0.05 78 1003.1
20220520233210 74 226 5.0 13.0 0.00 0.05 0.05 78 1003.0
20220520233009 74 225 5.0 13.0 0.00 0.05 0.05 78 1003.1
20220520232809 74 232 5.0 13.0 0.00 0.05 0.05 78 1003.1
20220520232609 74 230 6.0 12.0 0.00 0.05 0.05 78 1003.0
20220520232407 74 221 4.0 12.0 0.00 0.05 0.05 78 1003.0
20220520232206 74 210 6.0 12.0 0.00 0.05 0.05 78 1002.9
20220520232006 74 213 6.0 12.0 0.00 0.05 0.05 78 1002.9
20220520231806 74 213 7.0 12.0 0.00 0.05 0.05 78 1002.9
20220520231605 74 208 6.0 12.0 0.00 0.05 0.05 78 1002.8
20220520231405 74 210 7.0 12.0 0.00 0.05 0.05 78 1002.7
20220520231205 74 208 5.0 12.0 0.00 0.05 0.05 78 1002.7
20220520231004 74 219 5.0 12.0 0.00 0.05 0.05 78 1002.7
20220520230804 75 223 6.0 14.0 0.00 0.05 0.05 78 1002.8
20220520230603 75 226 5.0 14.0 0.00 0.05 0.05 78 1002.8
20220520230403 75 214 6.0 14.0 0.00 0.05 0.05 78 1002.9
20220520230203 75 214 7.0 14.0 0.00 0.05 0.05 78 1003.0
20220520230002 75 207 4.0 14.0 0.00 0.05 0.05 78 1003.0
20220520225802 75 212 5.0 15.0 0.00 0.05 0.05 78 1003.0
20220520225602 75 210 5.0 15.0 0.00 0.05 0.05 78 1003.0
20220520225401 75 216 4.0 15.0 0.00 0.05 0.05 78 1003.1
20220520225201 75 220 6.0 15.0 0.00 0.05 0.05 78 1003.1
20220520225001 75 217 4.0 15.0 0.00 0.05 0.05 78 1003.0
20220520224800 75 216 5.0 13.0 0.00 0.05 0.05 78 1003.0
20220520224600 75 211 8.0 15.0 0.00 0.05 0.05 78 1003.1
20220520224400 75 217 8.0 15.0 0.00 0.05 0.05 77 1003.2
20220520224159 75 220 5.0 16.0 0.00 0.05 0.05 77 1003.2
20220520223959 75 224 6.0 18.0 0.00 0.05 0.05 77 1003.2
20220520223757 75 227 8.0 18.0 0.00 0.05 0.05 77 1003.2
20220520223557 75 213 9.0 18.0 0.00 0.05 0.05 77 1003.2
20220520223356 75 202 8.0 18.0 0.00 0.05 0.05 77 1003.3
20220520223156 75 199 6.0 18.0 0.00 0.05 0.05 77 1003.2
20220520222956 75 204 6.0 14.0 0.00 0.05 0.05 77 1003.3
20220520222755 75 199 7.0 16.0 0.00 0.05 0.05 77 1003.3
20220520222555 75 204 5.0 16.0 0.00 0.05 0.05 77 1003.2
20220520222354 75 203 6.0 16.0 0.00 0.05 0.05 77 1003.0
20220520222154 75 204 8.0 16.0 0.00 0.05 0.05 77 1002.8
20220520221954 75 210 8.0 16.0 0.00 0.05 0.05 76 1002.7
20220520221753 75 209 9.0 15.0 0.00 0.05 0.05 76 1002.6
20220520221552 75 219 6.0 18.0 0.00 0.05 0.05 76 1002.6
20220520221352 75 213 7.0 18.0 0.00 0.05 0.05 76 1003.0
20220520221152 75 208 7.0 18.0 0.00 0.05 0.05 76 1003.0
20220520220951 75 201 7.0 18.0 0.00 0.05 0.05 76 1003.0
20220520220751 75 204 9.0 18.0 0.00 0.05 0.05 76 1003.1
20220520220551 75 206 7.0 16.0 0.00 0.05 0.05 76 1003.2
20220520220350 75 201 6.0 20.0 0.00 0.05 0.05 76 1003.1
20220520220150 75 195 7.0 20.0 0.00 0.05 0.05 76 1003.0
20220520215950 75 204 6.0 20.0 0.00 0.05 0.05 76 1002.9
20220520215749 75 206 6.0 20.0 0.00 0.05 0.05 76 1002.9
20220520215549 75 201 9.0 20.0 0.00 0.05 0.05 76 1002.8
20220520215348 75 204 9.0 20.0 0.00 0.05 0.05 76 1002.8
20220520215148 75 214 7.0 18.0 0.00 0.05 0.05 76 1002.7
20220520214948 75 212 8.0 18.0 0.00 0.05 0.05 76 1002.7
20220520214747 75 216 8.0 18.0 0.00 0.05 0.05 76 1002.5
20220520214546 75 211 8.0 18.0 0.00 0.05 0.05 76 1002.6
20220520214346 76 201 8.0 18.0 0.00 0.05 0.05 75 1002.4
20220520214145 76 211 6.0 14.0 0.00 0.05 0.05 75 1002.4
20220520213945 76 223 5.0 16.0 0.00 0.05 0.05 76 1002.3
20220520213745 76 218 5.0 18.0 0.00 0.05 0.05 76 1002.2
20220520213544 75 217 7.0 18.0 0.00 0.05 0.05 76 1002.2
20220520213344 75 213 7.0 18.0 0.00 0.05 0.05 76 1002.2
20220520213144 75 208 9.0 18.0 0.00 0.05 0.05 76 1002.3
20220520212942 75 213 8.0 18.0 0.00 0.05 0.05 75 1002.4
20220520212742 76 234 5.0 18.0 0.00 0.05 0.05 75 1001.8
20220520212540 76 220 6.0 18.0 0.00 0.05 0.05 75 1001.5
20220520212338 76 218 9.0 21.0 0.00 0.05 0.05 75 1001.7
20220520212138 76 222 9.0 21.0 0.00 0.05 0.05 75 1002.1
20220520211936 76 208 8.0 21.0 0.00 0.05 0.05 75 1002.4
20220520211735 76 193 8.0 21.0 0.00 0.05 0.05 76 1002.5
20220520211535 76 204 10.0 21.0 0.00 0.05 0.05 75 1002.7
20220520211335 76 214 8.0 18.0 0.00 0.05 0.05 75 1002.9
20220520211134 75 216 8.0 22.0 0.00 0.05 0.05 76 1003.0
20220520210934 75 215 8.0 23.0 0.00 0.05 0.05 75 1003.0
20220520210734 75 212 7.0 23.0 0.00 0.05 0.05 76 1003.2
20220520210533 75 214 8.0 23.0 0.00 0.05 0.05 76 1003.4
20220520210331 76 205 10.0 23.0 0.00 0.05 0.05 75 1003.4
20220520210131 76 212 8.0 22.0 0.00 0.05 0.05 75 1003.4
20220520205931 76 201 8.0 28.0 0.00 0.05 0.05 75 1003.4
20220520205730 75 194 8.0 29.0 0.00 0.05 0.05 76 1003.4
20220520205530 75 212 7.0 29.0 0.00 0.05 0.05 76 1003.4
20220520205330 75 217 9.0 29.0 0.00 0.05 0.05 77 1003.4
20220520205129 74 196 11.0 29.0 0.00 0.05 0.05 76 1003.4
20220520204929 74 194 10.0 29.0 0.00 0.05 0.05 77 1003.4
20220520204729 74 198 11.0 26.0 0.00 0.05 0.05 76 1003.3
20220520204528 75 207 10.0 26.0 0.00 0.05 0.05 76 1003.3
20220520204328 75 213 9.0 26.0 0.00 0.05 0.05 76 1003.3
20220520204128 75 212 11.0 20.0 0.00 0.05 0.05 75 1003.2
20220520203926 76 211 11.0 19.0 0.00 0.05 0.05 75 1003.3
20220520203725 76 218 10.0 21.0 0.00 0.05 0.05 75 1003.3
20220520203525 76 213 7.0 21.0 0.00 0.05 0.05 75 1003.3
20220520203325 75 202 7.0 21.0 0.00 0.05 0.05 76 1003.2
20220520203124 75 209 9.0 21.0 0.00 0.05 0.05 76 1003.3
20220520202924 75 202 8.0 21.0 0.00 0.05 0.05 76 1003.4
20220520202724 74 204 9.0 21.0 0.00 0.05 0.05 77 1003.4
20220520202523 74 199 9.0 20.0 0.00 0.05 0.05 76 1003.4
20220520202323 74 215 8.0 17.0 0.00 0.05 0.05 76 1003.4
20220520202123 75 219 7.0 19.0 0.00 0.05 0.05 76 1003.3
20220520201922 75 211 8.0 19.0 0.00 0.05 0.05 76 1003.4
20220520201722 75 206 7.0 19.0 0.00 0.05 0.05 76 1003.4
20220520201521 75 190 6.0 19.0 0.00 0.05 0.05 76 1003.3
20220520201321 74 211 10.0 19.0 0.00 0.05 0.05 76 1003.4
20220520201121 75 219 8.0 21.0 0.00 0.05 0.05 76 1003.6
20220520200920 74 207 7.0 21.0 0.00 0.05 0.05 77 1003.7
20220520200719 74 212 7.0 21.0 0.00 0.05 0.05 78 1003.6
20220520200519 73 218 8.0 21.0 0.00 0.05 0.05 79 1003.8
20220520200319 73 200 11.0 21.0 0.00 0.05 0.05 79 1003.9
20220520200118 72 207 11.0 22.0 0.00 0.05 0.05 79 1004.0
20220520195918 72 205 10.0 22.0 0.00 0.05 0.05 79 1004.0
20220520195717 72 205 9.0 22.0 0.00 0.05 0.05 80 1003.9
20220520195517 72 202 10.0 22.0 0.00 0.05 0.05 80 1003.9
20220520195317 72 201 8.0 22.0 0.00 0.05 0.05 80 1004.0
20220520195116 72 210 9.0 22.0 0.00 0.05 0.05 79 1004.1
20220520194916 72 210 10.0 22.0 0.00 0.05 0.05 80 1004.1
20220520194716 72 197 10.0 22.0 0.00 0.05 0.05 79 1004.0
20220520194515 72 201 8.0 19.0 0.00 0.05 0.05 80 1004.0
20220520194315 72 210 7.0 19.0 0.00 0.05 0.05 80 1004.3
20220520194115 72 197 10.0 19.0 0.00 0.05 0.05 80 1004.3
20220520193914 72 210 10.0 18.0 0.00 0.05 0.05 80 1004.2
20220520193714 72 211 9.0 16.0 0.00 0.05 0.05 80 1004.1
20220520193513 72 218 7.0 16.0 0.00 0.05 0.05 80 1004.2
20220520193313 72 227 5.0 16.0 0.00 0.05 0.05 80 1004.2
20220520193112 72 223 6.0 17.0 0.00 0.05 0.05 81 1004.1
20220520192912 72 208 7.0 17.0 0.00 0.05 0.05 80 1004.0
20220520192711 72 203 8.0 19.0 0.00 0.05 0.05 80 1004.0
20220520192511 72 205 8.0 22.0 0.00 0.05 0.05 80 1004.1
20220520192311 72 198 5.0 22.0 0.00 0.05 0.05 81 1004.1
20220520192109 72 194 9.0 22.0 0.00 0.05 0.05 80 1004.1
20220520191908 72 203 11.0 22.0 0.00 0.05 0.05 80 1004.1
20220520191708 72 207 7.0 22.0 0.00 0.05 0.05 80 1004.2
20220520191508 72 202 7.0 18.0 0.00 0.05 0.05 80 1004.3
20220520191307 72 212 6.0 16.0 0.00 0.05 0.05 80 1004.4
20220520191106 72 206 8.0 16.0 0.00 0.05 0.05 79 1004.4
20220520190906 72 204 8.0 16.0 0.00 0.05 0.05 78 1004.4
20220520190705 73 214 7.0 14.0 0.00 0.05 0.05 78 1004.5
20220520190505 73 205 6.0 14.0 0.00 0.05 0.05 78 1004.3
20220520190305 73 206 7.0 22.0 0.00 0.05 0.05 78 1004.3
20220520190104 73 213 7.0 22.0 0.00 0.05 0.05 78 1004.3
20220520185902 73 208 8.0 22.0 0.00 0.05 0.05 78 1004.2
20220520185702 73 200 9.0 22.0 0.00 0.05 0.05 78 1004.4
20220520185501 73 201 11.0 22.0 0.00 0.05 0.05 77 1004.5
20220520185301 73 207 9.0 20.0 0.00 0.05 0.05 77 1004.5
20220520185100 74 211 7.0 21.0 0.00 0.05 0.05 76 1004.3
20220520184900 74 220 8.0 22.0 0.00 0.05 0.05 76 1004.3
20220520184700 74 216 8.0 22.0 0.00 0.05 0.05 75 1004.2
20220520184459 74 215 7.0 22.0 0.00 0.05 0.05 75 1004.2
20220520184259 75 203 9.0 22.0 0.00 0.05 0.05 74 1004.2
20220520184058 75 212 11.0 22.0 0.00 0.05 0.05 74 1004.1
20220520183858 75 217 10.0 22.0 0.00 0.05 0.05 73 1004.0
20220520183658 76 196 8.0 19.0 0.00 0.05 0.05 72 1004.0
20220520183457 76 205 7.0 19.0 0.00 0.05 0.05 70 1004.0
20220520183257 77 209 9.0 19.0 0.00 0.05 0.05 70 1004.0
20220520183057 77 200 8.0 19.0 0.00 0.05 0.05 69 1004.1
20220520182856 77 216 9.0 20.0 0.00 0.05 0.05 69 1004.1
20220520182655 78 226 8.0 20.0 0.00 0.05 0.05 68 1004.1
20220520182455 78 217 9.0 20.0 0.00 0.05 0.05 68 1004.1
20220520182255 78 217 8.0 20.0 0.00 0.05 0.05 69 1004.0
20220520182054 78 209 11.0 20.0 0.00 0.05 0.05 69 1004.1
20220520181854 78 201 9.0 20.0 0.00 0.05 0.05 68 1004.1
20220520181653 78 197 7.0 21.0 0.00 0.05 0.05 68 1004.2
20220520181452 77 212 8.0 21.0 0.00 0.05 0.05 69 1004.0
20220520181251 77 202 9.0 21.0 0.00 0.05 0.05 69 1003.9
20220520181051 77 211 9.0 21.0 0.00 0.05 0.05 69 1003.9
20220520180851 77 206 11.0 22.0 0.00 0.05 0.05 69 1003.9
20220520180649 76 212 12.0 22.0 0.00 0.05 0.05 69 1004.0
20220520180449 76 197 12.0 22.0 0.00 0.05 0.05 69 1004.0
20220520180248 77 193 13.0 23.0 0.00 0.05 0.05 68 1004.0
20220520180048 77 202 12.0 23.0 0.00 0.05 0.05 68 1003.9
20220520175847 77 205 11.0 23.0 0.00 0.05 0.05 67 1003.9
20220520175646 77 201 11.0 23.0 0.00 0.05 0.05 68 1003.9
20220520175446 77 205 12.0 23.0 0.00 0.05 0.05 67 1004.0
20220520175245 77 203 10.0 23.0 0.00 0.05 0.05 67 1004.0
20220520175045 77 193 8.0 22.0 0.00 0.05 0.05 67 1004.1
20220520174844 77 192 10.0 22.0 0.00 0.05 0.05 68 1004.0
20220520174643 77 213 11.0 22.0 0.00 0.05 0.05 67 1004.2
20220520174443 77 214 9.0 21.0 0.00 0.05 0.05 67 1004.1
20220520174243 77 212 8.0 21.0 0.00 0.05 0.05 67 1004.2
20220520174042 77 210 11.0 27.0 0.00 0.05 0.05 67 1004.2
20220520173842 77 217 11.0 27.0 0.00 0.05 0.05 66 1004.2
20220520173642 77 208 11.0 27.0 0.00 0.05 0.05 66 1004.2
20220520173441 77 211 9.0 27.0 0.00 0.05 0.05 66 1004.2
20220520173241 77 212 10.0 27.0 0.00 0.05 0.05 65 1004.2
20220520173041 78 215 11.0 27.0 0.00 0.05 0.05 65 1004.1
20220520172840 78 210 10.0 25.0 0.00 0.05 0.05 64 1004.1
20220520172640 78 190 11.0 25.0 0.00 0.05 0.05 64 1004.1
20220520172440 78 196 10.0 25.0 0.00 0.05 0.05 64 1004.1
20220520172239 78 201 11.0 25.0 0.00 0.05 0.05 64 1004.1
20220520172037 78 210 12.0 25.0 0.00 0.05 0.05 64 1004.1
20220520171837 78 210 12.0 25.0 0.00 0.05 0.05 64 1004.1
20220520171637 78 201 10.0 23.0 0.00 0.05 0.05 64 1004.0
20220520171436 78 204 10.0 24.0 0.00 0.05 0.05 64 1004.0
20220520171236 78 204 10.0 24.0 0.00 0.05 0.05 64 1003.9
20220520171035 78 199 10.0 26.0 0.00 0.05 0.05 64 1004.0
20220520170835 78 202 11.0 26.0 0.00 0.05 0.05 64 1003.9
20220520170634 78 205 10.0 26.0 0.00 0.05 0.05 64 1003.8
20220520170434 79 211 10.0 26.0 0.00 0.05 0.05 64 1003.8
20220520170234 79 213 9.0 26.0 0.00 0.05 0.05 64 1003.8
20220520170033 78 205 11.0 24.0 0.00 0.05 0.05 64 1003.7
20220520165833 78 202 11.0 24.0 0.00 0.05 0.05 64 1003.7
20220520165632 78 218 11.0 21.0 0.00 0.05 0.05 64 1003.7
20220520165432 78 217 10.0 24.0 0.00 0.05 0.05 64 1003.7
20220520165232 78 204 11.0 24.0 0.00 0.05 0.05 64 1003.8
20220520165030 78 198 10.0 24.0 0.00 0.05 0.05 63 1003.8
20220520164829 79 195 13.0 24.0 0.00 0.05 0.05 64 1003.7
20220520164629 79 213 14.0 24.0 0.00 0.05 0.05 63 1003.8
20220520164429 79 218 9.0 22.0 0.00 0.05 0.05 63 1003.7
20220520164228 79 204 7.0 22.0 0.00 0.05 0.05 64 1003.8
20220520164028 79 197 10.0 22.0 0.00 0.05 0.05 63 1003.8
20220520163828 79 217 10.0 22.0 0.00 0.05 0.05 62 1003.8
20220520163627 79 217 8.0 22.0 0.00 0.05 0.05 64 1003.7
20220520163426 79 218 8.0 22.0 0.00 0.05 0.05 64 1003.7
20220520163226 79 222 8.0 22.0 0.00 0.05 0.05 64 1003.7
20220520163025 79 224 9.0 22.0 0.00 0.05 0.05 64 1003.7
20220520162825 78 214 9.0 22.0 0.00 0.05 0.05 64 1003.8
20220520162625 78 209 9.0 19.0 0.00 0.05 0.05 65 1003.8
20220520162424 78 213 9.0 19.0 0.00 0.05 0.05 64 1003.7
20220520162224 78 213 9.0 19.0 0.00 0.05 0.05 65 1003.8
20220520162024 78 209 10.0 19.0 0.00 0.05 0.05 64 1003.8
20220520161823 79 217 10.0 19.0 0.00 0.05 0.05 63 1003.7
20220520161623 79 218 10.0 19.0 0.00 0.05 0.05 63 1003.7
20220520161423 79 215 9.0 18.0 0.00 0.05 0.05 63 1003.8
20220520161221 79 215 7.0 18.0 0.00 0.05 0.05 64 1003.7
20220520161021 79 207 8.0 24.0 0.00 0.05 0.05 64 1003.7
20220520160821 79 208 10.0 24.0 0.00 0.05 0.05 64 1003.7
20220520160620 79 214 10.0 24.0 0.00 0.05 0.05 64 1003.7
20220520160420 79 205 9.0 24.0 0.00 0.05 0.05 64 1003.7
20220520160220 79 214 8.0 24.0 0.00 0.05 0.05 63 1003.6
20220520160019 79 227 7.0 21.0 0.00 0.05 0.05 63 1003.5
20220520155819 79 234 7.0 17.0 0.00 0.05 0.05 64 1003.6
20220520155618 79 235 9.0 17.0 0.00 0.05 0.05 63 1003.7
20220520155418 79 226 8.0 17.0 0.00 0.05 0.05 64 1003.6
20220520155218 79 225 7.0 17.0 0.00 0.05 0.05 65 1003.7
20220520155017 79 220 8.0 16.0 0.00 0.05 0.05 66 1003.7
20220520154817 79 213 8.0 16.0 0.00 0.05 0.05 65 1003.7
20220520154617 79 216 8.0 16.0 0.00 0.05 0.05 65 1003.7
20220520154416 79 223 7.0 16.0 0.00 0.05 0.05 66 1003.7
20220520154216 79 216 7.0 14.0 0.00 0.05 0.05 66 1003.7
20220520154015 79 221 6.0 15.0 0.00 0.05 0.05 63 1003.6
20220520153815 79 226 6.0 15.0 0.00 0.05 0.05 64 1003.7
20220520153615 79 206 5.0 15.0 0.00 0.05 0.05 63 1003.7
20220520153414 78 211 6.0 15.0 0.00 0.05 0.05 64 1003.7
20220520153214 78 211 7.0 15.0 0.00 0.05 0.05 64 1003.8
20220520153014 78 229 5.0 15.0 0.00 0.05 0.05 65 1003.7
20220520152813 78 223 5.0 12.0 0.00 0.05 0.05 66 1003.8
20220520152613 78 226 5.0 12.0 0.00 0.05 0.05 66 1003.8
20220520152413 78 230 5.0 12.0 0.00 0.05 0.05 67 1003.8
20220520152211 78 232 5.0 12.0 0.00 0.05 0.05 68 1003.9
20220520152010 77 220 6.0 13.0 0.00 0.05 0.05 68 1003.9
20220520151810 77 209 3.0 13.0 0.00 0.05 0.05 70 1004.0
20220520151610 77 220 4.0 13.0 0.00 0.05 0.05 70 1004.0
20220520151409 76 217 6.0 13.0 0.00 0.05 0.05 69 1004.0
20220520151209 76 220 7.0 13.0 0.00 0.05 0.05 70 1004.1
20220520151009 76 212 6.0 12.0 0.00 0.05 0.05 72 1004.1
20220520150808 76 218 4.0 12.0 0.00 0.05 0.05 73 1004.2
20220520150608 75 217 5.0 12.0 0.00 0.05 0.05 75 1004.2
20220520150408 75 212 5.0 12.0 0.00 0.05 0.05 75 1004.2
20220520150207 74 213 5.0 12.0 0.00 0.05 0.05 75 1004.3
20220520150007 74 216 1.0 7.0 0.00 0.05 0.05 78 1004.3
20220520145807 74 214 2.0 7.0 0.00 0.05 0.05 79 1004.2
20220520145606 73 224 4.0 7.0 0.00 0.05 0.05 79 1004.2
20220520145406 73 213 3.0 7.0 0.00 0.05 0.05 79 1004.3
20220520145206 72 210 3.0 6.0 0.00 0.05 0.05 80 1004.2